When you browse on this site, cookies collect data to enhance your experience and personalize the content and advertising you see.
Visit our Privacy Policy to learn more. By continuing to use the site, you agree to this use of cookies and data.
  • In Germany
  • List of Countries
  • For 7 days
  • Water Temperature
  • Weather Map
  • Weather Widgets
  • user-avatar
    Login

    Hourly Weather Kapan

    Today, 23 September, Monday

    Time Temperature Precipitation Wind Pressure Humidity
    00:00 +11°C° 0 mm 1 mps 685 mmHg 68%
    01:00 +11°C° 0 mm 1 mps 685 mmHg 68%
    02:00 +11°C° 0 mm 1 mps 685 mmHg 68%
    03:00 +11°C° 0 mm 1 mps 685 mmHg 69%
    04:00 +11°C° 0 mm 1 mps 685 mmHg 68%
    05:00 +11°C° 0 mm 1 mps 685 mmHg 68%
    06:00 +11°C° 0 mm 1 mps 685 mmHg 67%
    07:00 +13°C° 0 mm 1 mps 685 mmHg 60%
    08:00 +15°C° 0 mm 1 mps 686 mmHg 52%
    09:00 +18°C° 0 mm 2 mps 686 mmHg 44%
    10:00 +19°C° 0 mm 2 mps 686 mmHg 41%
    11:00 +20°C° 0 mm 2 mps 686 mmHg 38%
    12:00 +21°C° 0 mm 3 mps 685 mmHg 36%
    13:00 +22°C° 0 mm 3 mps 685 mmHg 35%
    14:00 +22°C° 0 mm 3 mps 684 mmHg 35%
    15:00 +22°C° 0 mm 3 mps 683 mmHg 34%
    16:00 +20°C° 0 mm 2 mps 683 mmHg 41%
    17:00 +18°C° 0 mm 2 mps 683 mmHg 47%
    18:00 +16°C° 0 mm 1 mps 682 mmHg 53%
    19:00 +16°C° 0 mm 1 mps 682 mmHg 54%
    20:00 +15°C° 0 mm 1 mps 683 mmHg 55%
    21:00 +15°C° 0 mm 1 mps 683 mmHg 56%
    22:00 +14°C° 0 mm 1 mps 683 mmHg 57%
    23:00 +14°C° 0 mm 1 mps 683 mmHg 59%

    Tomorrow, 24 September, Tuesday

    Time Temperature Precipitation Wind Pressure Humidity
    00:00 +14°C° 0 mm 1 mps 683 mmHg 60%
    01:00 +13°C° 0 mm 1 mps 683 mmHg 61%
    02:00 +13°C° 0 mm 1 mps 683 mmHg 62%
    03:00 +13°C° 0 mm 1 mps 683 mmHg 64%
    04:00 +13°C° 0 mm 1 mps 684 mmHg 64%
    05:00 +13°C° 0 mm 1 mps 684 mmHg 65%
    06:00 +13°C° 0 mm 1 mps 684 mmHg 65%
    07:00 +15°C° 0 mm 1 mps 684 mmHg 59%
    08:00 +18°C° 0 mm 1 mps 685 mmHg 52%
    09:00 +19°C° 0 mm 2 mps 686 mmHg 45%
    10:00 +20°C° 0 mm 2 mps 685 mmHg 43%
    11:00 +23°C° 0 mm 2 mps 685 mmHg 40%
    12:00 +24°C° 0 mm 3 mps 685 mmHg 37%
    13:00 +24°C° 0 mm 3 mps 684 mmHg 38%
    14:00 +24°C° 0 mm 3 mps 684 mmHg 38%
    15:00 +25°C° 0 mm 3 mps 684 mmHg 38%
    16:00 +23°C° 0 mm 2 mps 683 mmHg 49%
    17:00 +19°C° 0 mm 2 mps 683 mmHg 60%
    18:00 +18°C° 0 mm 1 mps 682 mmHg 71%
    19:00 +18°C° 0 mm 1 mps 682 mmHg 72%
    20:00 +18°C° 0 mm 1 mps 683 mmHg 73%
    21:00 +15°C° 0 mm 0 mps 683 mmHg 74%
    22:00 +15°C° 0 mm 0 mps 683 mmHg 73%
    23:00 +15°C° 0 mm 0 mps 683 mmHg 72%

    Day after tomorrow, 25 September, Wednesday

    Time Temperature Precipitation Wind Pressure Humidity
    00:00 +15°C° 0 mm 0 mps 683 mmHg 72%
    01:00 +15°C° 0 mm 0 mps 683 mmHg 70%
    02:00 +15°C° 0 mm 1 mps 682 mmHg 68%
    03:00 +15°C° 0 mm 1 mps 682 mmHg 67%
    04:00 +15°C° 0 mm 1 mps 682 mmHg 65%
    05:00 +15°C° 0 mm 1 mps 682 mmHg 63%
    06:00 +15°C° 0 mm 1 mps 683 mmHg 61%
    07:00 +18°C° 0 mm 1 mps 683 mmHg 55%
    08:00 +21°C° 0 mm 1 mps 684 mmHg 49%
    09:00 +23°C° 0 mm 1 mps 685 mmHg 42%
    10:00 +24°C° 0 mm 2 mps 684 mmHg 39%
    11:00 +26°C° 0 mm 2 mps 684 mmHg 36%
    12:00 +27°C° 0 mm 3 mps 684 mmHg 33%
    13:00 +27°C° 0 mm 3 mps 684 mmHg 33%
    14:00 +27°C° 0 mm 3 mps 684 mmHg 33%
    15:00 +28°C° 0 mm 3 mps 684 mmHg 32%
    16:00 +25°C° 0 mm 2 mps 683 mmHg 41%
    17:00 +23°C° 0 mm 2 mps 683 mmHg 50%
    18:00 +21°C° 0 mm 1 mps 683 mmHg 59%
    19:00 +20°C° 0 mm 1 mps 683 mmHg 58%
    20:00 +20°C° 0 mm 1 mps 683 mmHg 58%
    21:00 +19°C° 0 mm 1 mps 684 mmHg 57%
    22:00 +19°C° 0 mm 1 mps 684 mmHg 57%
    23:00 +19°C° 0 mm 1 mps 683 mmHg 56%

    26 September, Thursday

    Time Temperature Precipitation Wind Pressure Humidity
    00:00 +18°C° 0 mm 1 mps 683 mmHg 56%
    01:00 +18°C° 0 mm 1 mps 683 mmHg 56%
    02:00 +18°C° 0 mm 1 mps 684 mmHg 56%
    03:00 +16°C° 0 mm 1 mps 684 mmHg 56%
    04:00 +16°C° 0 mm 1 mps 684 mmHg 56%
    05:00 +16°C° 0 mm 1 mps 684 mmHg 56%
    06:00 +16°C° 0 mm 1 mps 684 mmHg 56%
    07:00 +19°C° 0 mm 1 mps 685 mmHg 51%
    08:00 +21°C° 0 mm 2 mps 685 mmHg 47%
    09:00 +24°C° 0 mm 2 mps 686 mmHg 42%
    10:00 +25°C° 0 mm 2 mps 686 mmHg 40%
    11:00 +27°C° 0 mm 3 mps 686 mmHg 37%
    12:00 +28°C° 0 mm 3 mps 685 mmHg 35%
    13:00 +28°C° 0 mm 3 mps 685 mmHg 35%
    14:00 +28°C° 0 mm 3 mps 684 mmHg 35%
    15:00 +28°C° 0 mm 3 mps 684 mmHg 35%
    16:00 +26°C° 0 mm 2 mps 683 mmHg 44%
    17:00 +24°C° 0 mm 1 mps 683 mmHg 53%
    18:00 +21°C° 0 mm 1 mps 682 mmHg 62%
    19:00 +21°C° 0 mm 1 mps 682 mmHg 63%
    20:00 +20°C° 0 mm 1 mps 683 mmHg 65%
    21:00 +20°C° 0 mm 1 mps 683 mmHg 66%
    22:00 +19°C° 0 mm 1 mps 683 mmHg 67%
    23:00 +19°C° 0 mm 1 mps 683 mmHg 69%

    27 September, Friday

    Time Temperature Precipitation Wind Pressure Humidity
    00:00 +18°C° 0 mm 1 mps 683 mmHg 70%
    01:00 +16°C° 0 mm 0 mps 683 mmHg 70%
    02:00 +16°C° 0 mm 0 mps 683 mmHg 71%
    03:00 +16°C° 0 mm 0 mps 683 mmHg 71%
    04:00 +15°C° 0 mm 0 mps 683 mmHg 72%
    05:00 +15°C° 0 mm 0 mps 683 mmHg 73%
    06:00 +15°C° 0 mm 0 mps 683 mmHg 74%
    07:00 +19°C° 0 mm 1 mps 684 mmHg 68%
    08:00 +21°C° 0 mm 1 mps 684 mmHg 62%
    09:00 +23°C° 0 mm 2 mps 685 mmHg 56%
    10:00 +24°C° 0 mm 2 mps 685 mmHg 53%
    11:00 +25°C° 0 mm 2 mps 685 mmHg 49%
    12:00 +27°C° 0 mm 3 mps 685 mmHg 45%
    13:00 +27°C° 0 mm 3 mps 684 mmHg 44%
    14:00 +27°C° 0 mm 3 mps 684 mmHg 44%
    15:00 +27°C° 0 mm 3 mps 683 mmHg 43%
    16:00 +25°C° 0 mm 2 mps 683 mmHg 50%
    17:00 +23°C° 0 mm 2 mps 682 mmHg 56%
    18:00 +21°C° 0 mm 1 mps 682 mmHg 62%
    19:00 +20°C° 0 mm 1 mps 682 mmHg 62%
    20:00 +20°C° 0 mm 1 mps 682 mmHg 62%
    21:00 +19°C° 0 mm 1 mps 683 mmHg 62%
    22:00 +19°C° 0 mm 1 mps 683 mmHg 62%
    23:00 +19°C° 0 mm 1 mps 682 mmHg 62%

    28 September, Saturday

    Time Temperature Precipitation Wind Pressure Humidity
    00:00 +19°C° 0 mm 1 mps 682 mmHg 62%
    01:00 +18°C° 0 mm 1 mps 682 mmHg 62%
    02:00 +18°C° 0 mm 1 mps 682 mmHg 62%
    03:00 +18°C° 0 mm 1 mps 682 mmHg 62%
    04:00 +18°C° 0 mm 1 mps 682 mmHg 61%
    05:00 +18°C° 0 mm 1 mps 682 mmHg 61%
    06:00 +18°C° 0 mm 1 mps 682 mmHg 60%
    07:00 +19°C° 0 mm 2 mps 683 mmHg 53%
    08:00 +21°C° 0 mm 2 mps 683 mmHg 46%
    09:00 +25°C° 0 mm 3 mps 684 mmHg 40%
    10:00 +26°C° 0 mm 3 mps 684 mmHg 39%
    11:00 +26°C° 0 mm 3 mps 683 mmHg 38%
    12:00 +27°C° 0 mm 4 mps 683 mmHg 38%
    13:00 +27°C° 0 mm 4 mps 683 mmHg 38%
    14:00 +27°C° 0 mm 3 mps 682 mmHg 38%
    15:00 +26°C° 0 mm 3 mps 682 mmHg 39%
    16:00 +24°C° 0 mm 3 mps 682 mmHg 48%
    17:00 +21°C° 0 mm 2 mps 682 mmHg 57%
    18:00 +19°C° 0 mm 2 mps 682 mmHg 66%
    19:00 +19°C° 0 mm 2 mps 682 mmHg 67%
    20:00 +19°C° 0 mm 1 mps 683 mmHg 68%
    21:00 +19°C° 0 mm 1 mps 684 mmHg 69%
    22:00 +19°C° 0 mm 1 mps 684 mmHg 71%
    23:00 +18°C° 0 mm 1 mps 685 mmHg 72%
    Show more